Voltar ao catálogo

RUBIN 4/SL-8

AtivoRádio AmadorSSO
NORAD 27940·PAYLOAD·🇩🇪 Germany

Lançado Sep 27, 2003 de Plesetsk Cosmodrome

Loading…

Próximas Passagens (próximas 24 horas)

TLE

AtualizadoSource: Space-Track

Época: Sep 14, 2026, 18:51 UTC

1 27940U 03042B   26257.78555930  .00000274  00000-0  54916-4 0  9997
2 27940  98.3922  78.1945 0014236  76.2081 284.0707 14.69562749227722

Acompanhe RUBIN 4/SL-8 em tempo real com AllMySat

Download on the App Store